User: anonymous   Login
Location: Caltech
(34.1382°N, 118.1253°W)
Time: 14:54:22
(UTC-07:00)
Language:

Cosmos 2219 Rocket - Orbit

View from above orbital plane
View from above orbital plane
View from above satellite
View from above satellite

Ground track
Ground track

The orbit data is extracted from the following two-line orbital elements,

1 22220U 92076B   16180.86190753  .00000082  00000-0  65019-4 0  9992
2 22220  71.0008  82.9708 0010757  91.8353 333.0546 14.16397397220748
Epoch (UTC): 28 June 2016 20:41:08
Eccentricity: 0.0010757
inclination: 71.0008°
perigee height: 830 km
apogee height: 845 km
right ascension of ascending node: 82.9708°
argument of perigee: 91.8353°
revolutions per day: 14.16397397
mean anomaly at epoch: 333.0546°
orbit number at epoch: 22074

The dashed part of the orbit path shows where the satellite is in the earth's shadow,  

DLR